IRIDIUM 66 [P]

Last updated on Aug. 8, 2018, 12:20 a.m. UTC

1 25289U 98021E   18219.88629945  .07622768 -18986-5  12865-1 0  9997
2 25289  86.4014  49.3701 0366840 168.3051 199.3718 15.39662061 64801

Satellite is not in orbit.